Sioux Falls, SD

1:51 PM CST on November 20, 2019 (GMT -0600)
Foss

Weather History for KFSD - October, 2019

Change the Weather History Date:

Wednesday, October 16, 2019

  Actual Average Record
Temperature  
Mean Temperature 44 °F 48 °F  
Max Temperature 52 °F 60 °F 89 °F (1910)
Min Temperature 37 °F 36 °F 19 °F (1976)
Degree Days  
Heating Degree Days 20 17  
Month to date heating degree days 270 227  
Since 1 July heating degree days 321 431  
Cooling Degree Days 0 0  
Month to date cooling degree days 0 0  
Year to date cooling degree days 830 685  
Moisture  
Dew Point 33 °F    
Average Humidity 68    
Maximum Humidity 79    
Minimum Humidity 52    
Precipitation  
Precipitation 0.00 in 0.08 in 1.80 in (1968)
Month to date precipitation 2.10 1.32  
Year to date precipitation 36.44 23.48  
Snow  
Snow 0.00 in 0.00 in 2.00 in (1937)
Month to date snowfall 0.9 0.3  
Since 1 July snowfall 0.9 0.3  
Since 1 September snowfall 0.9 0.3  
Snow Depth 0.00 in    
Sea Level Pressure  
Sea Level Pressure 30.15 in    
Wind  
Wind Speed 7 mph ()    
Max Wind Speed 18 mph    
Max Gust Speed 25 mph    
Visibility 10.0 miles    
Events      
T = Trace of Precipitation, MM = Missing Value Source: Averaged Metar Reports

Daily Weather History Graph

Daily Weather History Graph

Search for Another Location

Airport or City:

Astronomy

Oct. 16, 2019 Rise Set
Actual Time 7:42 AM CDT 6:42 PM CDT
Civil Twilight 7:13 AM CDT 7:11 PM CDT
Nautical Twilight 6:39 AM CDT 7:44 PM CDT
Astronomical Twilight 6:06 AM CDT 8:17 PM CDT
Moon 8:32 PM CDT (10/16) 10:17 AM CDT (10/16)
Length of Visible Light 11h 57m
Length of Day
11h 00m
Waning Gibbous, 92% of the Moon is Illuminated
Oct 16
Waning Gibbous
Oct 21
Last Quarter
Oct 27
New
Nov 4
First Quarter
Nov 12
Full

Hourly Weather History & Observations

Time (CDT) Temp. Windchill Dew Point Humidity Pressure Visibility Wind Dir Wind Speed Gust Speed Precip Events Conditions
12:56 AM 41.0 °F 34.7 °F 33.1 °F 73% 30.21 in 10.0 mi NW 10.4 mph - N/A   Overcast
1:56 AM 41.0 °F 34.7 °F 32.0 °F 70% 30.22 in 10.0 mi NNW 10.4 mph - N/A   Overcast
2:56 AM 41.0 °F 35.2 °F 33.1 °F 73% 30.22 in 10.0 mi NNW 9.2 mph - N/A   Overcast
3:56 AM 39.9 °F 32.5 °F 32.0 °F 73% 30.22 in 10.0 mi NNW 12.7 mph - N/A   Overcast
4:56 AM 39.9 °F 32.5 °F 32.0 °F 73% 30.22 in 10.0 mi North 12.7 mph - N/A   Overcast
5:56 AM 39.9 °F 35.8 °F 33.1 °F 77% 30.22 in 10.0 mi NW 5.8 mph - N/A   Overcast
6:56 AM 39.0 °F 34.0 °F 32.0 °F 76% 30.22 in 10.0 mi WNW 6.9 mph - N/A   Overcast
7:56 AM 39.0 °F 34.8 °F 32.0 °F 76% 30.21 in 10.0 mi NNW 5.8 mph - N/A   Overcast
8:06 AM 39.0 °F 31.8 °F 32.0 °F 76% 30.18 in 10.0 mi NW 11.5 mph - N/A   Overcast
8:56 AM 37.9 °F 31.5 °F 30.9 °F 76% 30.23 in 10.0 mi WNW 9.2 mph - N/A   Overcast
9:56 AM 39.0 °F 34.8 °F 30.9 °F 73% 30.23 in 10.0 mi NW 5.8 mph - N/A   Overcast
10:15 AM 39.0 °F 34.8 °F 30.9 °F 73% 30.20 in 10.0 mi WNW 5.8 mph - N/A   Overcast
10:56 AM 41.0 °F 36.4 °F 32.0 °F 70% 30.23 in 10.0 mi WNW 6.9 mph - N/A   Overcast
11:56 AM 43.0 °F 38.8 °F 32.0 °F 65% 30.20 in 10.0 mi NW 6.9 mph - N/A   Overcast
12:56 PM 46.9 °F - 33.1 °F 59% 30.19 in 10.0 mi NNW 4.6 mph - N/A   Mostly Cloudy
1:11 PM 46.9 °F - 33.1 °F 59% 30.15 in 10.0 mi Variable 4.6 mph - N/A   Mostly Cloudy
1:56 PM 48.9 °F - 34.0 °F 56% 30.15 in 10.0 mi WNW 5.8 mph - N/A   Mostly Cloudy
2:56 PM 50.0 °F - 35.1 °F 57% 30.12 in 10.0 mi West 4.6 mph - N/A   Mostly Cloudy
3:56 PM 50.0 °F - 34.0 °F 54% 30.10 in 10.0 mi South 3.5 mph - N/A   Mostly Cloudy
4:56 PM 50.0 °F - 35.1 °F 57% 30.07 in 10.0 mi South 3.5 mph - N/A   Mostly Cloudy
5:56 PM 50.0 °F - 35.1 °F 57% 30.06 in 10.0 mi South 5.8 mph - N/A   Mostly Cloudy
6:56 PM 46.0 °F 42.5 °F 34.0 °F 63% 30.05 in 10.0 mi South 6.9 mph - N/A   Mostly Cloudy
7:56 PM 42.1 °F 39.2 °F 33.1 °F 70% 30.05 in 10.0 mi SSE 4.6 mph - N/A   Mostly Cloudy
8:56 PM 41.0 °F 38.0 °F 33.1 °F 73% 30.05 in 10.0 mi ESE 4.6 mph - N/A   Overcast
9:56 PM 42.1 °F 40.2 °F 33.1 °F 70% 30.05 in 10.0 mi ESE 3.5 mph - N/A   Scattered Clouds
10:56 PM 39.9 °F 37.8 °F 32.0 °F 73% 30.03 in 10.0 mi ESE 3.5 mph - N/A   Clear
11:56 PM 42.1 °F 37.1 °F 33.1 °F 70% 30.01 in 10.0 mi South 8.1 mph - N/A   Clear